Date,TemperatureHighF,TemperatureAvgF,TemperatureLowF,DewpointHighF,DewpointAvgF,DewpointLowF,HumidityHigh,HumidityAvg,HumidityLow,PressureMaxIn,PressureMinIn,WindSpeedMaxMPH,WindSpeedAvgMPH,GustSpeedMaxMPH,PrecipitationSumIn
2013-6-1,81,74,65,68,66,64,96,79,61,29.69,29.64,8,4,0,0.00
2013-6-2,66,59,50,61,52,42,87,76,71,29.93,29.63,10,6,0,0.02
2013-6-3,75,59,42,49,44,38,87,61,38,30.01,29.92,8,3,0,0.00
2013-6-4,78,65,54,51,46,42,76,51,33,30.14,30.08,6,2,0,0.00
2013-6-5,76,67,59,55,50,43,65,54,42,30.13,29.94,5,2,0,0.00
2013-6-6,69,65,61,56,54,50,69,66,61,29.87,29.81,7,4,0,0.00
2013-6-8,82,73,64,58,57,55,78,57,44,29.95,29.91,3,1,0,0.00
2013-6-9,80,77,75,63,60,58,60,57,54,30.03,29.91,7,3,0,0.00
2013-6-10,75,70,63,69,67,62,99,89,79,29.72,29.65,5,2,0,0.10
2013-6-11,84,71,61,69,65,61,99,82,60,29.81,29.70,8,3,0,0.01
2013-6-12,79,70,58,70,66,57,99,85,68,29.83,29.59,5,1,0,0.05
2013-6-13,80,69,61,65,61,57,98,76,48,29.85,29.52,12,5,0,0.70
2013-6-14,82,65,53,58,53,47,90,67,31,30.03,29.86,8,4,0,0.00
2013-6-15,80,72,57,65,61,56,96,71,55,30.00,29.81,5,2,0,0.00
2013-6-16,86,72,64,69,63,58,99,77,45,29.81,29.65,9,3,0,0.35
2013-6-17,84,70,58,71,61,56,93,75,48,29.86,29.72,9,2,0,0.63
2013-6-19,86,73,56,55,52,46,85,50,32,30.10,30.01,4,0,0,0.00
2013-6-20,91,68,48,60,54,47,97,67,33,30.14,30.05,5,0,0,0.00
2013-6-21,87,71,55,70,61,54,96,73,51,30.13,29.93,0,0,0,0.00
2013-6-22,90,78,66,74,68,60,95,72,55,29.98,29.83,6,1,0,0.05
2013-6-23,96,80,69,73,70,68,99,75,42,29.94,29.84,10,2,0,0.00
2013-6-24,91,83,70,74,71,66,93,68,54,29.94,29.79,8,2,0,0.00
2013-6-25,84,73,68,73,68,65,96,86,62,29.87,29.72,7,1,0,0.23
2013-6-26,91,76,66,73,69,64,97,80,54,29.77,29.63,6,0,0,0.00
2013-6-27,86,72,66,74,69,64,99,89,67,29.66,29.55,5,0,0,0.56
2013-6-28,77,68,62,68,66,61,98,92,70,29.58,29.43,6,2,0,1.10
2013-6-29,75,68,61,63,61,58,99,82,61,29.67,29.46,9,2,0,0.00
2013-6-30,82,68,58,67,58,46,95,72,47,29.90,29.67,8,2,0,0.02